Satellite-Ground Cal/Val Site Overpasses Predictions

Prediction of Satellite NPP Overpassing Cal/Val Site: Antarctic Dome C

Ground Cal/Val Site Location: Latitude: -75.10, Longitude: 123.35; Satellite-Ground Site NADIR distance within 100 km.

Table of predicted overpasses for the next 14.0 days since TLE Epoch: 2/22/2015
Interval Starting Time Ending Time Minimum Distance Time Minimum Distance (km)
1 02/25/2015 15:01:07 02/25/2015 15:01:36 02/25/2015 15:01:21 16.53
2 02/26/2015 14:42:25 02/26/2015 14:42:37 02/26/2015 14:42:31 90.42
3 02/27/2015 07:43:56 02/27/2015 07:44:23 02/27/2015 07:44:09 39.93
4 02/28/2015 07:25:08 02/28/2015 07:25:29 02/28/2015 07:25:18 70.17
5 03/02/2015 15:07:21 03/02/2015 15:07:46 03/02/2015 15:07:33 53.81
6 03/03/2015 14:48:31 03/03/2015 14:48:56 03/03/2015 14:48:44 55.42
7 03/04/2015 07:50:13 03/04/2015 07:50:32 03/04/2015 07:50:22 75.26
8 03/05/2015 07:31:18 03/05/2015 07:31:45 03/05/2015 07:31:31 32.75
9 03/07/2015 15:13:41 03/07/2015 15:13:52 03/07/2015 15:13:46 91.69


NCC Satellite Cal/Val Overpasses Prediction Service
